Year,Month,Day,Hour,Minute,Value (Times are PST for temperature in C)
2013,08,21,00,00,15.40
2013,08,21,00,01,15.40
2013,08,21,00,02,15.40
2013,08,21,00,03,15.40
2013,08,21,00,04,15.40
2013,08,21,00,05,15.40
2013,08,21,00,06,15.40
2013,08,21,00,07,15.30
2013,08,21,00,08,15.30
2013,08,21,00,09,15.30
2013,08,21,00,10,15.30
2013,08,21,00,11,15.30
2013,08,21,00,12,15.30
2013,08,21,00,13,15.30
2013,08,21,00,14,15.30
2013,08,21,00,15,15.30
2013,08,21,00,16,15.30
2013,08,21,00,17,15.20
2013,08,21,00,18,15.20
2013,08,21,00,19,15.20
2013,08,21,00,20,15.20
2013,08,21,00,21,15.20
2013,08,21,00,22,15.20
2013,08,21,00,23,15.10
2013,08,21,00,24,15.10
2013,08,21,00,25,15.10
2013,08,21,00,26,15.00
2013,08,21,00,27,15.00
2013,08,21,00,28,14.90
2013,08,21,00,29,14.90
2013,08,21,00,30,14.90
2013,08,21,00,31,14.80
2013,08,21,00,32,14.80
2013,08,21,00,33,14.80
2013,08,21,00,34,14.70
2013,08,21,00,35,14.70
2013,08,21,00,36,14.70
2013,08,21,00,37,14.70
2013,08,21,00,38,14.60
2013,08,21,00,39,14.60
2013,08,21,00,40,14.60
2013,08,21,00,41,14.60
2013,08,21,00,42,14.50
2013,08,21,00,43,14.50
2013,08,21,00,44,14.40
2013,08,21,00,45,14.40
2013,08,21,00,46,14.40
2013,08,21,00,47,14.40
2013,08,21,00,48,14.30
2013,08,21,00,49,14.30
2013,08,21,00,50,14.30
2013,08,21,00,51,14.20
2013,08,21,00,52,14.20
2013,08,21,00,53,14.10
2013,08,21,00,54,14.10
2013,08,21,00,55,14.10
2013,08,21,00,56,14.00
2013,08,21,00,57,14.00
2013,08,21,00,58,13.90
2013,08,21,00,59,13.90
2013,08,21,01,00,13.90
2013,08,21,01,01,13.80
2013,08,21,01,02,13.80
2013,08,21,01,03,13.80
2013,08,21,01,04,13.80
2013,08,21,01,05,13.80
2013,08,21,01,06,13.70
2013,08,21,01,07,13.70
2013,08,21,01,08,13.70
2013,08,21,01,09,13.70
2013,08,21,01,10,13.70
2013,08,21,01,11,13.60
2013,08,21,01,12,13.60
2013,08,21,01,13,13.60
2013,08,21,01,14,13.50
2013,08,21,01,15,13.50
2013,08,21,01,16,13.50
2013,08,21,01,17,13.40
2013,08,21,01,18,13.40
2013,08,21,01,19,13.40
2013,08,21,01,20,13.40
2013,08,21,01,21,13.30
2013,08,21,01,22,13.30
2013,08,21,01,23,13.30
2013,08,21,01,24,13.30
2013,08,21,01,25,13.30
2013,08,21,01,26,13.30
2013,08,21,01,27,13.20
2013,08,21,01,28,13.20
2013,08,21,01,29,13.20
2013,08,21,01,30,13.20
2013,08,21,01,31,13.20
2013,08,21,01,32,13.10
2013,08,21,01,33,13.10
2013,08,21,01,34,13.10
2013,08,21,01,35,13.10
2013,08,21,01,36,13.00
2013,08,21,01,37,13.00
2013,08,21,01,38,13.00
2013,08,21,01,39,13.00
2013,08,21,01,40,13.00
2013,08,21,01,41,13.00
2013,08,21,01,42,13.00
2013,08,21,01,43,13.00
2013,08,21,01,44,13.00
2013,08,21,01,45,12.90
2013,08,21,01,46,12.90
2013,08,21,01,47,12.90
2013,08,21,01,48,12.90
2013,08,21,01,49,12.80
2013,08,21,01,50,12.80
2013,08,21,01,51,12.80
2013,08,21,01,52,12.80
2013,08,21,01,53,12.80
2013,08,21,01,54,12.70
2013,08,21,01,55,12.70
2013,08,21,01,56,12.70
2013,08,21,01,57,12.70
2013,08,21,01,58,12.60
2013,08,21,01,59,12.60
2013,08,21,02,00,12.60
2013,08,21,02,01,12.60
2013,08,21,02,02,12.60
2013,08,21,02,03,12.60
2013,08,21,02,04,12.50
2013,08,21,02,05,12.50
2013,08,21,02,06,12.50
2013,08,21,02,07,12.50
2013,08,21,02,08,12.40
2013,08,21,02,09,12.40
2013,08,21,02,10,12.40
2013,08,21,02,11,12.40
2013,08,21,02,12,12.40
2013,08,21,02,13,12.40
2013,08,21,02,14,12.30
2013,08,21,02,15,12.30
2013,08,21,02,16,12.30
2013,08,21,02,17,12.30
2013,08,21,02,18,12.30
2013,08,21,02,19,12.30
2013,08,21,02,20,12.30
2013,08,21,02,21,12.30
2013,08,21,02,22,12.30
2013,08,21,02,23,12.30
2013,08,21,02,24,12.30
2013,08,21,02,25,12.30
2013,08,21,02,26,12.30
2013,08,21,02,27,12.30
2013,08,21,02,28,12.30
2013,08,21,02,29,12.20
2013,08,21,02,30,12.20
2013,08,21,02,31,12.20
2013,08,21,02,32,12.20
2013,08,21,02,33,12.20
2013,08,21,02,34,12.20
2013,08,21,02,35,12.20
2013,08,21,02,36,12.20
2013,08,21,02,37,12.20
2013,08,21,02,38,12.10
2013,08,21,02,39,12.10
2013,08,21,02,40,12.10
2013,08,21,02,41,12.10
2013,08,21,02,42,12.10
2013,08,21,02,43,12.10
2013,08,21,02,44,12.10
2013,08,21,02,45,12.10
2013,08,21,02,46,12.10
2013,08,21,02,47,12.00
2013,08,21,02,48,12.00
2013,08,21,02,49,12.00
2013,08,21,02,50,11.90
2013,08,21,02,51,11.90
2013,08,21,02,52,11.90
2013,08,21,02,53,11.90
2013,08,21,02,54,11.90
2013,08,21,02,55,11.80
2013,08,21,02,56,11.80
2013,08,21,02,57,11.80
2013,08,21,02,58,11.80
2013,08,21,02,59,11.80
2013,08,21,03,00,11.70
2013,08,21,03,01,11.70
2013,08,21,03,02,11.70
2013,08,21,03,03,11.70
2013,08,21,03,04,11.70
2013,08,21,03,05,11.70
2013,08,21,03,06,11.70
2013,08,21,03,07,11.70
2013,08,21,03,08,11.70
2013,08,21,03,09,11.60
2013,08,21,03,10,11.60
2013,08,21,03,11,11.60
2013,08,21,03,12,11.60
2013,08,21,03,13,11.60
2013,08,21,03,14,11.60
2013,08,21,03,15,11.60
2013,08,21,03,16,11.60
2013,08,21,03,17,11.60
2013,08,21,03,18,11.60
2013,08,21,03,19,11.60
2013,08,21,03,20,11.60
2013,08,21,03,21,11.60
2013,08,21,03,22,11.60
2013,08,21,03,23,11.50
2013,08,21,03,24,11.50
2013,08,21,03,25,11.40
2013,08,21,03,26,11.40
2013,08,21,03,27,11.40
2013,08,21,03,28,11.40
2013,08,21,03,29,11.40
2013,08,21,03,30,11.40
2013,08,21,03,31,11.40
2013,08,21,03,32,11.40
2013,08,21,03,33,11.40
2013,08,21,03,34,11.40
2013,08,21,03,35,11.30
2013,08,21,03,36,11.30
2013,08,21,03,37,11.30
2013,08,21,03,38,11.30
2013,08,21,03,39,11.30
2013,08,21,03,40,11.30
2013,08,21,03,41,11.30
2013,08,21,03,42,11.30
2013,08,21,03,43,11.30
2013,08,21,03,44,11.30
2013,08,21,03,45,11.30
2013,08,21,03,46,11.30
2013,08,21,03,47,11.30
2013,08,21,03,48,11.30
2013,08,21,03,49,11.30
2013,08,21,03,50,11.30
2013,08,21,03,51,11.30
2013,08,21,03,52,11.30
2013,08,21,03,53,11.30
2013,08,21,03,54,11.30
2013,08,21,03,55,11.30
2013,08,21,03,56,11.30
2013,08,21,03,57,11.40
2013,08,21,03,58,11.40
2013,08,21,03,59,11.40
2013,08,21,04,00,11.40
2013,08,21,04,01,11.40
2013,08,21,04,02,11.40
2013,08,21,04,03,11.30
2013,08,21,04,04,11.30
2013,08,21,04,05,11.30
2013,08,21,04,06,11.30
2013,08,21,04,07,11.30
2013,08,21,04,08,11.30
2013,08,21,04,09,11.30
2013,08,21,04,10,11.30
2013,08,21,04,11,11.30
2013,08,21,04,12,11.30
2013,08,21,04,13,11.30
2013,08,21,04,14,11.30
2013,08,21,04,15,11.30
2013,08,21,04,16,11.30
2013,08,21,04,17,11.30
2013,08,21,04,18,11.30
2013,08,21,04,19,11.30
2013,08,21,04,20,11.20
2013,08,21,04,21,11.20
2013,08,21,04,22,11.20
2013,08,21,04,23,11.20
2013,08,21,04,24,11.20
2013,08,21,04,25,11.20
2013,08,21,04,26,11.20
2013,08,21,04,27,11.20
2013,08,21,04,28,11.20
2013,08,21,04,29,11.20
2013,08,21,04,30,11.20
2013,08,21,04,31,11.20
2013,08,21,04,32,11.20
2013,08,21,04,33,11.20
2013,08,21,04,34,11.20
2013,08,21,04,35,11.20
2013,08,21,04,36,11.20
2013,08,21,04,37,11.20
2013,08,21,04,38,11.20
2013,08,21,04,39,11.20
2013,08,21,04,40,11.20
2013,08,21,04,41,11.20
2013,08,21,04,42,11.20
2013,08,21,04,43,11.20
2013,08,21,04,44,11.10
2013,08,21,04,45,11.10
2013,08,21,04,46,11.10
2013,08,21,04,47,11.10
2013,08,21,04,48,11.10
2013,08,21,04,49,11.10
2013,08,21,04,50,11.00
2013,08,21,04,51,11.00
2013,08,21,04,52,11.00
2013,08,21,04,53,10.90
2013,08,21,04,54,10.90
2013,08,21,04,55,10.90
2013,08,21,04,56,10.90
2013,08,21,04,57,10.90
2013,08,21,04,58,10.90
2013,08,21,04,59,10.80
2013,08,21,05,00,10.80
2013,08,21,05,01,10.80
2013,08,21,05,02,10.80
2013,08,21,05,03,10.80
2013,08,21,05,04,10.80
2013,08,21,05,05,10.80
2013,08,21,05,06,10.70
2013,08,21,05,07,10.70
2013,08,21,05,08,10.70
2013,08,21,05,09,10.70
2013,08,21,05,10,10.70
2013,08,21,05,11,10.70
2013,08,21,05,12,10.70
2013,08,21,05,13,10.70
2013,08,21,05,14,10.70
2013,08,21,05,15,10.70
2013,08,21,05,16,10.70
2013,08,21,05,17,10.70
2013,08,21,05,18,10.70
2013,08,21,05,19,10.70
2013,08,21,05,20,10.70
2013,08,21,05,21,10.70
2013,08,21,05,22,10.70
2013,08,21,05,23,10.70
2013,08,21,05,24,10.70
2013,08,21,05,25,10.70
2013,08,21,05,26,10.70
2013,08,21,05,27,10.70
2013,08,21,05,28,10.70
2013,08,21,05,29,10.70
2013,08,21,05,30,10.70
2013,08,21,05,31,10.70
2013,08,21,05,32,10.60
2013,08,21,05,33,10.60
2013,08,21,05,34,10.60
2013,08,21,05,35,10.60
2013,08,21,05,36,10.60
2013,08,21,05,37,10.60
2013,08,21,05,38,10.60
2013,08,21,05,39,10.60
2013,08,21,05,40,10.60
2013,08,21,05,41,10.60
2013,08,21,05,42,10.60
2013,08,21,05,43,10.60
2013,08,21,05,44,10.60
2013,08,21,05,45,10.60
2013,08,21,05,46,10.60
2013,08,21,05,47,10.60
2013,08,21,05,48,10.60
2013,08,21,05,49,10.60
2013,08,21,05,50,10.60
2013,08,21,05,51,10.60
2013,08,21,05,52,10.60
2013,08,21,05,53,10.60
2013,08,21,05,54,10.70
2013,08,21,05,55,10.70
2013,08,21,05,56,10.70
2013,08,21,05,57,10.70
2013,08,21,05,58,10.70
2013,08,21,05,59,10.70
2013,08,21,06,00,10.70
2013,08,21,06,01,10.70
2013,08,21,06,02,10.70
2013,08,21,06,03,10.70
2013,08,21,06,04,10.70
2013,08,21,06,05,10.70
2013,08,21,06,06,10.70
2013,08,21,06,07,10.70
2013,08,21,06,08,10.70
2013,08,21,06,09,10.70
2013,08,21,06,10,10.70
2013,08,21,06,11,10.70
2013,08,21,06,12,10.70
2013,08,21,06,13,10.70
2013,08,21,06,14,10.70
2013,08,21,06,15,10.70
2013,08,21,06,16,10.70
2013,08,21,06,17,10.70
2013,08,21,06,18,10.70
2013,08,21,06,19,10.70
2013,08,21,06,20,10.60
2013,08,21,06,21,10.60
2013,08,21,06,22,10.60
2013,08,21,06,23,10.60
2013,08,21,06,24,10.60
2013,08,21,06,25,10.60
2013,08,21,06,26,10.60
2013,08,21,06,27,10.60
2013,08,21,06,28,10.50
2013,08,21,06,29,10.50
2013,08,21,06,30,10.50
2013,08,21,06,31,10.50
2013,08,21,06,32,10.50
2013,08,21,06,33,10.40
2013,08,21,06,34,10.40
2013,08,21,06,35,10.40
2013,08,21,06,36,10.40
2013,08,21,06,37,10.40
2013,08,21,06,38,10.40
2013,08,21,06,39,10.40
2013,08,21,06,40,10.40
2013,08,21,06,41,10.30
2013,08,21,06,42,10.30
2013,08,21,06,43,10.30
2013,08,21,06,44,10.30
2013,08,21,06,45,10.30
2013,08,21,06,46,10.30
2013,08,21,06,47,10.30
2013,08,21,06,48,10.30
2013,08,21,06,49,10.30
2013,08,21,06,50,10.30
2013,08,21,06,51,10.30
2013,08,21,06,52,10.30
2013,08,21,06,53,10.30
2013,08,21,06,54,10.30
2013,08,21,06,55,10.30
2013,08,21,06,56,10.30
2013,08,21,06,57,10.30
2013,08,21,06,58,10.30
2013,08,21,06,59,10.30
2013,08,21,07,00,10.30
2013,08,21,07,01,10.40
2013,08,21,07,02,10.40
2013,08,21,07,03,10.40
2013,08,21,07,04,10.40
2013,08,21,07,05,10.50
2013,08,21,07,06,10.50
2013,08,21,07,07,10.50
2013,08,21,07,08,10.60
2013,08,21,07,09,10.60
2013,08,21,07,10,10.60
2013,08,21,07,11,10.60
2013,08,21,07,12,10.60
2013,08,21,07,13,10.70
2013,08,21,07,14,10.70
2013,08,21,07,15,10.70
2013,08,21,07,16,10.80
2013,08,21,07,17,10.80
2013,08,21,07,18,10.90
2013,08,21,07,19,11.00
2013,08,21,07,20,11.10
2013,08,21,07,21,11.10
2013,08,21,07,22,11.20
2013,08,21,07,23,11.30
2013,08,21,07,24,11.30
2013,08,21,07,25,11.40
2013,08,21,07,26,11.40
2013,08,21,07,27,11.40
2013,08,21,07,28,11.50
2013,08,21,07,29,11.60
2013,08,21,07,30,11.60
2013,08,21,07,31,11.60
2013,08,21,07,32,11.70
2013,08,21,07,33,11.70
2013,08,21,07,34,11.70
2013,08,21,07,35,11.70
2013,08,21,07,36,11.80
2013,08,21,07,37,11.80
2013,08,21,07,38,11.80
2013,08,21,07,39,11.90
2013,08,21,07,40,12.00
2013,08,21,07,41,12.00
2013,08,21,07,42,12.10
2013,08,21,07,43,12.10
2013,08,21,07,44,12.10
2013,08,21,07,45,12.20
2013,08,21,07,46,12.20
2013,08,21,07,47,12.30
2013,08,21,07,48,12.30
2013,08,21,07,49,12.30
2013,08,21,07,50,12.40
2013,08,21,07,51,12.60
2013,08,21,07,52,12.70
2013,08,21,07,53,12.80
2013,08,21,07,54,12.80
2013,08,21,07,55,12.90
2013,08,21,07,56,12.90
2013,08,21,07,57,13.00
2013,08,21,07,58,13.00
2013,08,21,07,59,13.10
2013,08,21,08,00,13.10
2013,08,21,08,01,13.10
2013,08,21,08,02,13.20
2013,08,21,08,03,13.20
2013,08,21,08,04,13.30
2013,08,21,08,05,13.30
2013,08,21,08,06,13.30
2013,08,21,08,07,13.40
2013,08,21,08,08,13.40
2013,08,21,08,09,13.50
2013,08,21,08,10,13.50
2013,08,21,08,11,13.60
2013,08,21,08,12,13.70
2013,08,21,08,13,13.80
2013,08,21,08,14,13.90
2013,08,21,08,15,14.00
2013,08,21,08,16,14.00
2013,08,21,08,17,14.10
2013,08,21,08,18,14.20
2013,08,21,08,19,14.30
2013,08,21,08,20,14.30
2013,08,21,08,21,14.40
2013,08,21,08,22,14.50
2013,08,21,08,23,14.60
2013,08,21,08,24,14.60
2013,08,21,08,25,14.70
2013,08,21,08,26,14.70
2013,08,21,08,27,14.80
2013,08,21,08,28,14.90
2013,08,21,08,29,15.00
2013,08,21,08,30,15.10
2013,08,21,08,31,15.10
2013,08,21,08,32,15.20
2013,08,21,08,33,15.20
2013,08,21,08,34,15.30
2013,08,21,08,35,15.30
2013,08,21,08,36,15.40
2013,08,21,08,37,15.50
2013,08,21,08,38,15.50
2013,08,21,08,39,15.60
2013,08,21,08,40,15.70
2013,08,21,08,41,15.80
2013,08,21,08,42,15.90
2013,08,21,08,43,16.00
2013,08,21,08,44,16.10
2013,08,21,08,45,16.20
2013,08,21,08,46,16.30
2013,08,21,08,47,16.40
2013,08,21,08,48,16.50
2013,08,21,08,49,16.60
2013,08,21,08,50,16.60
2013,08,21,08,51,16.70
2013,08,21,08,52,16.80
2013,08,21,08,53,17.00
2013,08,21,08,54,17.10
2013,08,21,08,55,17.30
2013,08,21,08,56,17.40
2013,08,21,08,57,17.50
2013,08,21,08,58,17.60
2013,08,21,08,59,17.70
2013,08,21,09,00,17.70
2013,08,21,09,01,17.80
2013,08,21,09,02,17.80
2013,08,21,09,03,17.80
2013,08,21,09,04,17.90
2013,08,21,09,05,17.90
2013,08,21,09,06,17.90
2013,08,21,09,07,18.00
2013,08,21,09,08,18.00
2013,08,21,09,09,18.10
2013,08,21,09,10,18.10
2013,08,21,09,11,18.20
2013,08,21,09,12,18.30
2013,08,21,09,13,18.30
2013,08,21,09,14,18.40
2013,08,21,09,15,18.50
2013,08,21,09,16,18.60
2013,08,21,09,17,18.70
2013,08,21,09,18,18.70
2013,08,21,09,19,18.80
2013,08,21,09,20,18.90
2013,08,21,09,21,18.90
2013,08,21,09,22,18.90
2013,08,21,09,23,18.90
2013,08,21,09,24,19.00
2013,08,21,09,25,19.00
2013,08,21,09,26,18.90
2013,08,21,09,27,18.90
2013,08,21,09,28,18.90
2013,08,21,09,29,18.80
2013,08,21,09,30,18.80
2013,08,21,09,31,18.80
2013,08,21,09,32,18.70
2013,08,21,09,33,18.80
2013,08,21,09,34,18.80
2013,08,21,09,35,18.80
2013,08,21,09,36,18.90
2013,08,21,09,37,19.00
2013,08,21,09,38,19.00
2013,08,21,09,39,19.10
2013,08,21,09,40,19.20
2013,08,21,09,41,19.30
2013,08,21,09,42,19.40
2013,08,21,09,43,19.40
2013,08,21,09,44,19.50
2013,08,21,09,45,19.50
2013,08,21,09,46,19.60
2013,08,21,09,47,19.70
2013,08,21,09,48,19.80
2013,08,21,09,49,19.80
2013,08,21,09,50,19.90
2013,08,21,09,51,19.90
2013,08,21,09,52,20.00
2013,08,21,09,53,20.00
2013,08,21,09,54,20.00
2013,08,21,09,55,20.10
2013,08,21,09,56,20.10
2013,08,21,09,57,20.10
2013,08,21,09,58,20.10
2013,08,21,09,59,20.10
2013,08,21,10,00,20.20
2013,08,21,10,01,20.30
2013,08,21,10,02,20.40
2013,08,21,10,03,20.40
2013,08,21,10,04,20.60
2013,08,21,10,05,20.70
2013,08,21,10,06,20.80
2013,08,21,10,07,20.80
2013,08,21,10,08,20.90
2013,08,21,10,09,21.00
2013,08,21,10,10,21.00
2013,08,21,10,11,21.10
2013,08,21,10,12,21.20
2013,08,21,10,13,21.20
2013,08,21,10,14,21.20
2013,08,21,10,15,21.20
2013,08,21,10,16,21.30
2013,08,21,10,17,21.30
2013,08,21,10,18,21.30
2013,08,21,10,19,21.30
2013,08,21,10,20,21.30
2013,08,21,10,21,21.30
2013,08,21,10,22,21.30
2013,08,21,10,23,21.40
2013,08,21,10,24,21.40
2013,08,21,10,25,21.50
2013,08,21,10,26,21.50
2013,08,21,10,27,21.50
2013,08,21,10,28,21.50
2013,08,21,10,29,21.50
2013,08,21,10,30,21.50
2013,08,21,10,31,21.40
2013,08,21,10,32,21.30
2013,08,21,10,33,21.30
2013,08,21,10,34,21.20
2013,08,21,10,35,21.10
2013,08,21,10,36,21.00
2013,08,21,10,37,20.80
2013,08,21,10,38,20.70
2013,08,21,10,39,20.60
2013,08,21,10,40,20.60
2013,08,21,10,41,20.50
2013,08,21,10,42,20.50
2013,08,21,10,43,20.50
2013,08,21,10,44,20.50
2013,08,21,10,45,20.40
2013,08,21,10,46,20.40
2013,08,21,10,47,20.30
2013,08,21,10,48,20.30
2013,08,21,10,49,20.30
2013,08,21,10,50,20.30
2013,08,21,10,51,20.10
2013,08,21,10,52,20.00
2013,08,21,10,53,19.90
2013,08,21,10,54,19.80
2013,08,21,10,55,19.70
2013,08,21,10,56,19.70
2013,08,21,10,57,19.70
2013,08,21,10,58,19.70
2013,08,21,10,59,19.60
2013,08,21,11,00,19.60
2013,08,21,11,01,19.60
2013,08,21,11,02,19.60
2013,08,21,11,03,19.60
2013,08,21,11,04,19.60
2013,08,21,11,05,19.60
2013,08,21,11,06,19.60
2013,08,21,11,07,19.60
2013,08,21,11,08,19.60
2013,08,21,11,09,19.50
2013,08,21,11,10,19.40
2013,08,21,11,11,19.30
2013,08,21,11,12,19.10
2013,08,21,11,13,18.90
2013,08,21,11,14,18.80
2013,08,21,11,15,18.80
2013,08,21,11,16,18.80
2013,08,21,11,17,18.80
2013,08,21,11,18,18.80
2013,08,21,11,19,18.90
2013,08,21,11,20,18.90
2013,08,21,11,21,18.90
2013,08,21,11,22,19.00
2013,08,21,11,23,19.10
2013,08,21,11,24,19.10
2013,08,21,11,25,19.20
2013,08,21,11,26,19.30
2013,08,21,11,27,19.40
2013,08,21,11,28,19.50
2013,08,21,11,29,19.50
2013,08,21,11,30,19.60
2013,08,21,11,31,19.60
2013,08,21,11,32,19.70
2013,08,21,11,33,19.70
2013,08,21,11,34,19.80
2013,08,21,11,35,19.80
2013,08,21,11,36,19.80
2013,08,21,11,37,19.80
2013,08,21,11,38,19.90
2013,08,21,11,39,19.90
2013,08,21,11,40,20.00
2013,08,21,11,41,20.00
2013,08,21,11,42,20.10
2013,08,21,11,43,20.20
2013,08,21,11,44,20.20
2013,08,21,11,45,20.30
2013,08,21,11,46,20.40
2013,08,21,11,47,20.50
2013,08,21,11,48,20.50
2013,08,21,11,49,20.50
2013,08,21,11,50,20.50
2013,08,21,11,51,20.50
2013,08,21,11,52,20.60
2013,08,21,11,53,20.60
2013,08,21,11,54,20.70
2013,08,21,11,55,20.80
2013,08,21,11,56,20.90
2013,08,21,11,57,20.90
2013,08,21,11,58,21.00
2013,08,21,11,59,21.00
2013,08,21,12,00,21.00
2013,08,21,12,01,21.00
2013,08,21,12,02,21.00
2013,08,21,12,03,21.00
2013,08,21,12,04,21.00
2013,08,21,12,05,21.00
2013,08,21,12,06,21.00
2013,08,21,12,07,21.00
2013,08,21,12,08,21.10
2013,08,21,12,09,21.20
2013,08,21,12,10,21.30
2013,08,21,12,11,21.40
2013,08,21,12,12,21.50
2013,08,21,12,13,21.60
2013,08,21,12,14,21.70
2013,08,21,12,15,21.70
2013,08,21,12,16,21.70
2013,08,21,12,17,21.80
2013,08,21,12,18,21.80
2013,08,21,12,19,21.80
2013,08,21,12,20,21.80
2013,08,21,12,21,21.80
2013,08,21,12,22,21.90
2013,08,21,12,23,21.90
2013,08,21,12,24,22.00
2013,08,21,12,25,22.10
2013,08,21,12,26,22.10
2013,08,21,12,27,22.20
2013,08,21,12,28,22.20
2013,08,21,12,29,22.20
2013,08,21,12,30,22.30
2013,08,21,12,31,22.30
2013,08,21,12,32,22.40
2013,08,21,12,33,22.30
2013,08,21,12,34,22.30
2013,08,21,12,35,22.30
2013,08,21,12,36,22.40
2013,08,21,12,37,22.40
2013,08,21,12,38,22.40
2013,08,21,12,39,22.40
2013,08,21,12,40,22.50
2013,08,21,12,41,22.60
2013,08,21,12,42,22.60
2013,08,21,12,43,22.70
2013,08,21,12,44,22.70
2013,08,21,12,45,22.70
2013,08,21,12,46,22.70
2013,08,21,12,47,22.70
2013,08,21,12,48,22.60
2013,08,21,12,49,22.50
2013,08,21,12,50,22.50
2013,08,21,12,51,22.40
2013,08,21,12,52,22.30
2013,08,21,12,53,22.30
2013,08,21,12,54,22.20
2013,08,21,12,55,22.20
2013,08,21,12,56,22.30
2013,08,21,12,57,22.30
2013,08,21,12,58,22.30
2013,08,21,12,59,22.40
2013,08,21,13,00,22.40
2013,08,21,13,01,22.50
2013,08,21,13,02,22.50
2013,08,21,13,03,22.50
2013,08,21,13,04,22.50
2013,08,21,13,05,22.50
2013,08,21,13,06,22.50
2013,08,21,13,07,22.40
2013,08,21,13,08,22.30
2013,08,21,13,09,22.10
2013,08,21,13,10,22.00
2013,08,21,13,11,21.80
2013,08,21,13,12,21.70
2013,08,21,13,13,21.70
2013,08,21,13,14,21.60
2013,08,21,13,15,21.60
2013,08,21,13,16,21.60
2013,08,21,13,17,21.60
2013,08,21,13,18,21.60
2013,08,21,13,19,21.60
2013,08,21,13,20,21.60
2013,08,21,13,21,21.60
2013,08,21,13,22,21.70
2013,08,21,13,23,21.70
2013,08,21,13,24,21.70
2013,08,21,13,25,21.60
2013,08,21,13,26,21.50
2013,08,21,13,27,21.40
2013,08,21,13,28,21.30
2013,08,21,13,29,21.30
2013,08,21,13,30,21.30
2013,08,21,13,31,21.30
2013,08,21,13,32,21.30
2013,08,21,13,33,21.30
2013,08,21,13,34,21.40
2013,08,21,13,35,21.40
2013,08,21,13,36,21.50
2013,08,21,13,37,21.50
2013,08,21,13,38,21.40
2013,08,21,13,39,21.40
2013,08,21,13,40,21.40
2013,08,21,13,41,21.50
2013,08,21,13,42,21.50
2013,08,21,13,43,21.60
2013,08,21,13,44,21.60
2013,08,21,13,45,21.70
2013,08,21,13,46,21.70
2013,08,21,13,47,21.80
2013,08,21,13,48,21.80
2013,08,21,13,49,21.80
2013,08,21,13,50,21.80
2013,08,21,13,51,21.70
2013,08,21,13,52,21.70
2013,08,21,13,53,21.60
2013,08,21,13,54,21.60
2013,08,21,13,55,21.70
2013,08,21,13,56,21.70
2013,08,21,13,57,21.70
2013,08,21,13,58,21.70
2013,08,21,13,59,21.70
2013,08,21,14,00,21.70
2013,08,21,14,01,21.70
2013,08,21,14,02,21.60
2013,08,21,14,03,21.50
2013,08,21,14,04,21.50
2013,08,21,14,05,21.50
2013,08,21,14,06,21.50
2013,08,21,14,07,21.60
2013,08,21,14,08,21.60
2013,08,21,14,09,21.60
2013,08,21,14,10,21.70
2013,08,21,14,11,21.70
2013,08,21,14,12,21.70
2013,08,21,14,13,21.80
2013,08,21,14,14,21.80
2013,08,21,14,15,21.90
2013,08,21,14,16,21.90
2013,08,21,14,17,22.00
2013,08,21,14,18,22.00
2013,08,21,14,19,22.10
2013,08,21,14,20,22.20
2013,08,21,14,21,22.30
2013,08,21,14,22,22.40
2013,08,21,14,23,22.40
2013,08,21,14,24,22.40
2013,08,21,14,25,22.40
2013,08,21,14,26,22.40
2013,08,21,14,27,22.50
2013,08,21,14,28,22.50
2013,08,21,14,29,22.60
2013,08,21,14,30,22.70
2013,08,21,14,31,22.80
2013,08,21,14,32,22.90
2013,08,21,14,33,22.90
2013,08,21,14,34,22.90
2013,08,21,14,35,22.90
2013,08,21,14,36,22.80
2013,08,21,14,37,22.70
2013,08,21,14,38,22.70
2013,08,21,14,39,22.70
2013,08,21,14,40,22.70
2013,08,21,14,41,22.70
2013,08,21,14,42,22.80
2013,08,21,14,43,22.80
2013,08,21,14,44,22.90
2013,08,21,14,45,22.90
2013,08,21,14,46,22.80
2013,08,21,14,47,22.80
2013,08,21,14,48,22.80
2013,08,21,14,49,22.80
2013,08,21,14,50,22.80
2013,08,21,14,51,22.80
2013,08,21,14,52,22.90
2013,08,21,14,53,22.90
2013,08,21,14,54,23.00
2013,08,21,14,55,23.00
2013,08,21,14,56,23.10
2013,08,21,14,57,23.20
2013,08,21,14,58,23.30
2013,08,21,14,59,23.30
2013,08,21,15,00,23.30
2013,08,21,15,01,23.30
2013,08,21,15,02,23.30
2013,08,21,15,03,23.30
2013,08,21,15,04,23.30
2013,08,21,15,05,23.40
2013,08,21,15,06,23.40
2013,08,21,15,07,23.50
2013,08,21,15,08,23.50
2013,08,21,15,09,23.50
2013,08,21,15,10,23.50
2013,08,21,15,11,23.60
2013,08,21,15,12,23.60
2013,08,21,15,13,23.60
2013,08,21,15,14,23.60
2013,08,21,15,15,23.60
2013,08,21,15,16,23.60
2013,08,21,15,17,23.60
2013,08,21,15,18,23.70
2013,08,21,15,19,23.70
2013,08,21,15,20,23.70
2013,08,21,15,21,23.80
2013,08,21,15,22,23.80
2013,08,21,15,23,24.00
2013,08,21,15,24,24.10
2013,08,21,15,25,24.10
2013,08,21,15,26,24.20
2013,08,21,15,27,24.30
2013,08,21,15,28,24.30
2013,08,21,15,29,24.30
2013,08,21,15,30,24.40
2013,08,21,15,31,24.40
2013,08,21,15,32,24.40
2013,08,21,15,33,24.30
2013,08,21,15,34,24.30
2013,08,21,15,35,24.20
2013,08,21,15,36,24.10
2013,08,21,15,37,23.90
2013,08,21,15,38,23.80
2013,08,21,15,39,23.70
2013,08,21,15,40,23.50
2013,08,21,15,41,23.50
2013,08,21,15,42,23.50
2013,08,21,15,43,23.60
2013,08,21,15,44,23.60
2013,08,21,15,45,23.70
2013,08,21,15,46,23.90
2013,08,21,15,47,24.00
2013,08,21,15,48,24.10
2013,08,21,15,49,24.10
2013,08,21,15,50,24.20
2013,08,21,15,51,24.20
2013,08,21,15,52,24.30
2013,08,21,15,53,24.30
2013,08,21,15,54,24.30
2013,08,21,15,55,24.30
2013,08,21,15,56,24.30
2013,08,21,15,57,24.30
2013,08,21,15,58,24.40
2013,08,21,15,59,24.40
2013,08,21,16,00,24.50
2013,08,21,16,01,24.50
2013,08,21,16,02,24.40
2013,08,21,16,03,24.40
2013,08,21,16,04,24.30
2013,08,21,16,05,24.30
2013,08,21,16,06,24.30
2013,08,21,16,07,24.30
2013,08,21,16,08,24.30
2013,08,21,16,09,24.30
2013,08,21,16,10,24.30
2013,08,21,16,11,24.30
2013,08,21,16,12,24.30
2013,08,21,16,13,24.30
2013,08,21,16,14,24.40
2013,08,21,16,15,24.40
2013,08,21,16,16,24.30
2013,08,21,16,17,24.30
2013,08,21,16,18,24.30
2013,08,21,16,19,24.30
2013,08,21,16,20,24.20
2013,08,21,16,21,24.20
2013,08,21,16,22,24.20
2013,08,21,16,23,24.20
2013,08,21,16,24,24.30
2013,08,21,16,25,24.30
2013,08,21,16,26,24.30
2013,08,21,16,27,24.30
2013,08,21,16,28,24.30
2013,08,21,16,29,24.40
2013,08,21,16,30,24.40
2013,08,21,16,31,24.40
2013,08,21,16,32,24.40
2013,08,21,16,33,24.40
2013,08,21,16,34,24.30
2013,08,21,16,35,24.30
2013,08,21,16,36,24.30
2013,08,21,16,37,24.20
2013,08,21,16,38,24.20
2013,08,21,16,39,24.20
2013,08,21,16,40,24.20
2013,08,21,16,41,24.10
2013,08,21,16,42,24.10
2013,08,21,16,43,24.00
2013,08,21,16,44,23.90
2013,08,21,16,45,23.80
2013,08,21,16,46,23.60
2013,08,21,16,47,23.50
2013,08,21,16,48,23.50
2013,08,21,16,49,23.40
2013,08,21,16,50,23.40
2013,08,21,16,51,23.40
2013,08,21,16,52,23.50
2013,08,21,16,53,23.50
2013,08,21,16,54,23.60
2013,08,21,16,55,23.60
2013,08,21,16,56,23.60
2013,08,21,16,57,23.70
2013,08,21,16,58,23.70
2013,08,21,16,59,23.70
2013,08,21,17,00,23.70
2013,08,21,17,01,23.70
2013,08,21,17,02,23.80
2013,08,21,17,03,23.80
2013,08,21,17,04,23.80
2013,08,21,17,05,23.80
2013,08,21,17,06,23.70
2013,08,21,17,07,23.70
2013,08,21,17,08,23.70
2013,08,21,17,09,23.70
2013,08,21,17,10,23.70
2013,08,21,17,11,23.70
2013,08,21,17,12,23.70
2013,08,21,17,13,23.70
2013,08,21,17,14,23.80
2013,08,21,17,15,23.80
2013,08,21,17,16,23.80
2013,08,21,17,17,23.90
2013,08,21,17,18,23.90
2013,08,21,17,19,24.00